Location: Altoona
(40.5167°N, 78.4000°W)
Time: 13:36:32
(UTC-04:00)

Daily predictions for brighter satellites

Satellite Brightness Start Highest point End
(mag) Time Altitude Azimuth Time Altitude Azimuth Time Altitude Azimuth
Cosmos 2150 Rocket 4.2 19:22:54 10° NNW 19:28:11 59° ENE 19:33:30 10° SSE
COSMO-SKYMED 1 2.8 19:26:56 10° N 19:31:18 78° WNW 19:35:37 10° SSW
USA 229 DEB 4.0 19:24:31 10° NW 19:31:44 84° WSW 19:39:05 10° SSE
USA 229 4.0 19:24:38 10° NW 19:31:50 85° WSW 19:39:10 10° SSE
Cosmos 2181 Rocket 4.0 19:29:54 10° N 19:36:05 67° E 19:42:09 10° SSE
NOSS 3-1 (A) 4.4 19:28:49 10° NNW 19:36:05 48° NE 19:44:07 10° ESE
Cosmos 1758 Rocket 3.6 19:32:41 10° N 19:37:12 73° E 19:41:41 10° SSE
Cosmos 841 Rocket 3.6 19:32:44 10° S 19:37:41 51° ESE 19:42:39 10° NNE
Cosmos 1340 Rocket 2.9 19:37:06 10° N 19:41:12 89° ESE 19:45:17 10° S
Cosmos 1726 Rocket 3.5 19:36:52 10° S 19:41:13 79° E 19:45:34 10° N
Cosmos 1937 Rocket 3.5 19:37:02 10° NNW 19:42:23 87° ENE 19:47:38 10° SSE
Cosmos 389 Rocket 3.0 19:39:04 10° SSW 19:42:32 64° W 19:46:00 10° N
FREGAT/IRIS 3.2 19:39:47 10° SE 19:42:34 35° ENE 19:45:23 10° N
NOSS 3-1 (C) 4.1 19:37:18 10° NNW 19:44:52 67° NE 19:53:15 10° SE
Cosmos 2084 3.4 19:43:06 10° SW 19:47:12 79° NW 19:51:07 10° NNE
Cosmos 2074 Rocket 4.2 19:43:08 10° SSE 19:49:00 47° E 19:54:54 10° NNE
Cosmos 2298 Rocket 4.3 19:48:08 10° NNW 19:53:29 74° WSW 19:58:46 10° S
Cosmos 1943 Rocket 3.1 19:48:56 10° NNW 19:54:21 52° WSW 19:59:46 10° S
Cosmos 540 Rocket 4.0 19:50:05 10° SSE 19:54:41 35° E 19:59:18 10° NE
Cosmos 1763 Rocket 3.6 19:51:50 10° SSW 19:56:56 79° WNW 20:02:08 10° NNE
HJ-1C 3.8 19:56:57 10° SE 20:00:06 39° ENE 20:03:16 10° N
Meteor 1-24 Rocket 4.0 19:54:56 10° N 20:00:47 53° ENE 20:06:24 10° SSE
Cosmos 2228 3.1 20:02:32 10° S 20:06:54 82° W 20:11:16 10° N
SJ-6B 2.7 20:08:49 10° SSE 20:12:48 70° ENE 20:16:43 10° N
Cosmos 1953 3.9 20:17:35 18° ENE 20:17:35 18° ENE 20:19:32 10° NE
Resurs 01 Rocket 2.2 20:14:19 18° SE 20:17:04 36° ENE 20:21:07 10° N
Nadezhda 3 Rocket 4.5 20:12:15 10° N 20:18:06 39° ENE 20:23:05 14° SE
Cosmos 1356 Rocket 3.5 20:15:56 10° N 20:20:16 86° W 20:24:34 10° S
Cosmos 1812 Rocket 3.9 20:16:34 10° SSE 20:20:45 43° E 20:25:00 10° NNE
GP-B 3.7 20:16:42 10° NNE 20:20:46 35° E 20:23:34 17° SE
Meteor 2-8 Rocket 4.4 20:16:20 10° N 20:22:24 60° E 20:28:23 10° SSE
Thor Agena Rocket 4.2 20:19:21 10° N 20:24:30 58° WNW 20:29:34 10° SSW
H-2A R/B 2.9 20:21:05 10° S 20:24:46 71° WSW 20:28:32 10° NNW
Cosmos 2184 Rocket 4.0 20:20:23 10° S 20:26:41 89° E 20:33:06 10° N
Cosmos 2058 Rocket 4.3 20:22:48 10° SSW 20:26:57 44° WNW 20:31:10 10° N
Spot 2 Rocket 3.8 20:24:52 21° SE 20:27:51 43° ENE 20:32:36 10° N
Cosmos 1656 Rocket 4.1 20:23:09 10° NNW 20:28:43 64° WSW 20:34:11 10° S
Cosmos 836 Rocket 4.4 20:27:08 10° SSW 20:32:25 85° ESE 20:37:42 10° NNE
Cosmos 1610 Rocket 4.5 20:26:30 10° S 20:32:49 71° E 20:39:11 10° NNE
BREEZE-M DEB (TANK) 3.4 20:31:39 10° NNW 20:32:50 14° N 20:32:50 14° N
Meteor 2-19 Rocket 4.4 20:28:21 10° S 20:34:17 63° E 20:40:16 10° NNE
USA 186 4.0 20:36:33 10° N 20:36:33 10° N 20:36:35 10° N
Cosmos 292 Rocket 4.1 20:34:01 10° S 20:38:32 40° ESE 20:43:05 10° NE
Milstar 3 Cent rocket 3.5 20:38:14 10° SW 20:41:36 18° S 20:42:10 17° SSE
Meteor 1-22 Rocket 4.5 20:36:10 10° SSW 20:41:52 70° W 20:47:22 10° N
COSMOS 2406 3.5 20:39:04 10° SSW 20:44:45 70° WNW 20:50:30 10° NNE
Cosmos 783 Rocket 4.5 20:40:34 10° S 20:45:38 55° ESE 20:50:43 10° NNE
BREEZE-M (TANK) 4.2 20:33:10 10° WNW 20:45:42 54° SW 20:48:01 25° SSE
Cosmos 1766 4.1 20:42:10 10° SSW 20:46:00 51° W 20:49:50 10° N
Okean 3 Rocket 4.4 20:43:30 10° N 20:46:57 33° ENE 20:46:57 33° ENE
MOS 1-B Rocket 3.9 20:43:09 18° SSE 20:47:51 67° ENE 20:53:27 10° N
ISS -3.0 20:44:47 10° SW 20:47:03 38° SSW 20:47:03 38° SSW
Cosmos 1544 3.8 20:45:42 10° SSW 20:49:13 52° W 20:52:46 10° N
Cosmos 1125 Rocket 3.5 20:48:28 10° NNW 20:53:48 81° WSW 20:57:04 24° SSE
Cosmos 1356 3.4 20:52:42 10° N 20:56:11 84° W 20:56:11 84° W
BREEZE-M DEB (TANK) 3.3 20:46:09 10° WSW 20:57:42 88° NNW 20:59:22 40° ENE
Cosmos 372 Rocket 4.0 20:52:57 10° NNW 20:58:14 84° WSW 21:00:50 31° SSE
Cosmos 2369 4.3 20:53:43 10° N 20:58:56 37° ENE 20:59:14 36° ENE
Cosmos 1674 3.5 20:55:32 10° N 20:58:04 38° NNE 20:58:04 38° NNE
Envisat 2.9 20:57:59 35° SSE 21:00:10 81° ENE 21:05:16 10° N
Cosmos 1758 3.1 20:59:36 58° S 21:00:22 85° E 21:04:24 10° N
Meteor 1-21 Rocket 4.2 20:55:26 10° N 21:01:07 62° ENE 21:02:33 47° SE
ATLAS CENTAUR R/B 4.0 20:55:50 10° NW 21:06:55 44° WSW 21:09:50 22° S
Cosmos 962 Rocket 4.4 21:02:04 10° S 21:08:24 76° E 21:14:46 10° N
Cosmos 1939 Rocket 3.7 21:14:51 41° N 21:14:51 41° N 21:17:31 10° N
SJ-11-01 4.3 21:16:34 69° NE 21:16:34 69° NE 21:20:55 10° N
H-2A R/B 4.2 21:18:39 12° NNE 21:18:39 12° NNE 21:19:11 10° NNE
ATLAS 2AS CENTAUR R/B 3.4 21:10:31 10° NNW 21:18:10 45° NE 21:19:38 41° ENE
Cosmos 2278 3.8 21:28:02 10° NNW 21:33:05 62° NNE 21:33:05 62° NNE
Cosmos 2341 Rocket 4.4 21:38:05 10° SSW 21:44:09 59° W 21:50:19 10° N
Cosmos 1953 4.4 21:53:14 26° WNW 21:53:14 26° WNW 21:56:14 10° NNW
Resurs 01 Rocket 3.9 21:51:54 16° SW 21:53:38 20° W 21:56:55 10° NW
Cosmos 1697 Rocket 3.7 21:50:29 10° NNW 21:54:10 38° N 21:54:10 38° N
Cosmos 1656 4.3 21:51:20 10° NNW 21:55:33 51° NNW 21:55:33 51° NNW
FALCON 9 R/B 3.4 21:52:49 10° WSW 21:55:15 34° SW 21:55:15 34° SW
Cosmos 1980 Rocket 3.7 21:52:17 10° N 21:55:07 25° NNE 21:55:07 25° NNE
SL-16 R/B 4.5 22:19:52 10° N 22:21:08 15° NNE 22:21:08 15° NNE
ATLAS 2AS CENTAUR R/B 4.0 23:01:48 10° NW 23:07:05 38° WNW 23:07:05 38° WNW
